User: anonymous   Login
Location: Wien
(48.2082°N, 16.3738°E)
Time: 09:14:37
(UTC+02:00)
Language:

NOAA 19 - Orbit

View from above orbital plane
View from above orbital plane
View from above satellite
View from above satellite

Ground track
Ground track

The orbit data is extracted from the following two-line orbital elements,

1 33591U 09005A   24202.86439985  .00000444  00000-0  26228-3 0  9992
2 33591  99.0453 259.0171 0013672 193.1623 166.9194 14.13052776796387
Epoch (UTC): 20 July 2024 20:44:44
Eccentricity: 0.0013672
inclination: 99.0453°
perigee height: 839 km
apogee height: 859 km
right ascension of ascending node: 259.0171°
argument of perigee: 193.1623°
revolutions per day: 14.13052776
mean anomaly at epoch: 166.9194°
orbit number at epoch: 79638

The dashed part of the orbit path shows where the satellite is in the earth's shadow,  

DLR